Year,Month,Day,Hour,Minute,Value (Times are PST for temperature in C)
2021,09,26,00,00,13.40
2021,09,26,00,01,13.40
2021,09,26,00,02,13.40
2021,09,26,00,03,13.30
2021,09,26,00,04,13.30
2021,09,26,00,05,13.30
2021,09,26,00,06,13.30
2021,09,26,00,07,13.30
2021,09,26,00,08,13.30
2021,09,26,00,09,13.30
2021,09,26,00,10,13.30
2021,09,26,00,11,13.30
2021,09,26,00,12,13.30
2021,09,26,00,13,13.30
2021,09,26,00,14,13.30
2021,09,26,00,15,13.20
2021,09,26,00,16,13.20
2021,09,26,00,17,13.10
2021,09,26,00,18,13.10
2021,09,26,00,19,13.00
2021,09,26,00,20,13.00
2021,09,26,00,21,13.00
2021,09,26,00,22,13.00
2021,09,26,00,23,12.90
2021,09,26,00,24,12.90
2021,09,26,00,25,12.90
2021,09,26,00,26,12.90
2021,09,26,00,27,12.90
2021,09,26,00,28,12.90
2021,09,26,00,29,12.90
2021,09,26,00,30,12.90
2021,09,26,00,31,12.90
2021,09,26,00,32,12.90
2021,09,26,00,33,12.90
2021,09,26,00,34,12.80
2021,09,26,00,35,12.80
2021,09,26,00,36,12.80
2021,09,26,00,37,12.80
2021,09,26,00,38,12.80
2021,09,26,00,39,12.80
2021,09,26,00,40,12.80
2021,09,26,00,41,12.80
2021,09,26,00,42,12.80
2021,09,26,00,43,12.70
2021,09,26,00,44,12.70
2021,09,26,00,45,12.70
2021,09,26,00,46,12.70
2021,09,26,00,47,12.70
2021,09,26,00,48,12.60
2021,09,26,00,49,12.60
2021,09,26,00,50,12.60
2021,09,26,00,51,12.60
2021,09,26,00,52,12.60
2021,09,26,00,53,12.60
2021,09,26,00,54,12.60
2021,09,26,00,55,12.50
2021,09,26,00,56,12.50
2021,09,26,00,57,12.50
2021,09,26,00,58,12.50
2021,09,26,00,59,12.50
2021,09,26,01,00,12.50
2021,09,26,01,01,12.50
2021,09,26,01,02,12.50
2021,09,26,01,03,12.50
2021,09,26,01,04,12.50
2021,09,26,01,05,12.50
2021,09,26,01,06,12.50
2021,09,26,01,07,12.60
2021,09,26,01,08,12.60
2021,09,26,01,09,12.60
2021,09,26,01,10,12.60
2021,09,26,01,11,12.60
2021,09,26,01,12,12.60
2021,09,26,01,13,12.60
2021,09,26,01,14,12.60
2021,09,26,01,15,12.60
2021,09,26,01,16,12.60
2021,09,26,01,17,12.60
2021,09,26,01,18,12.60
2021,09,26,01,19,12.60
2021,09,26,01,20,12.70
2021,09,26,01,21,12.70
2021,09,26,01,22,12.70
2021,09,26,01,23,12.70
2021,09,26,01,24,12.70
2021,09,26,01,25,12.70
2021,09,26,01,26,12.70
2021,09,26,01,27,12.70
2021,09,26,01,28,12.70
2021,09,26,01,29,12.70
2021,09,26,01,30,12.70
2021,09,26,01,46,12.70
2021,09,26,01,47,12.70
2021,09,26,01,48,12.70
2021,09,26,01,49,12.70
2021,09,26,01,50,12.70
2021,09,26,01,51,12.80
2021,09,26,01,52,12.80
2021,09,26,01,53,12.80
2021,09,26,01,54,12.80
2021,09,26,01,55,12.80
2021,09,26,01,56,12.80
2021,09,26,01,57,12.90
2021,09,26,01,58,12.90
2021,09,26,01,59,12.90
2021,09,26,02,00,12.90
2021,09,26,02,01,12.90
2021,09,26,02,02,12.90
2021,09,26,02,03,12.90
2021,09,26,02,04,12.90
2021,09,26,02,05,12.90
2021,09,26,02,06,12.90
2021,09,26,02,07,12.90
2021,09,26,02,08,12.90
2021,09,26,02,09,12.90
2021,09,26,02,10,12.90
2021,09,26,02,11,12.90
2021,09,26,02,12,12.90
2021,09,26,02,13,12.90
2021,09,26,02,14,12.90
2021,09,26,02,15,12.90
2021,09,26,02,16,12.90
2021,09,26,02,17,13.00
2021,09,26,02,18,13.00
2021,09,26,02,19,13.00
2021,09,26,02,20,13.00
2021,09,26,02,21,13.00
2021,09,26,02,22,13.00
2021,09,26,02,23,13.00
2021,09,26,02,24,13.00
2021,09,26,02,25,13.00
2021,09,26,02,26,13.00
2021,09,26,02,27,13.00
2021,09,26,02,28,13.00
2021,09,26,02,29,13.00
2021,09,26,02,30,13.00
2021,09,26,02,31,13.00
2021,09,26,02,32,13.00
2021,09,26,15,51,12.90
2021,09,26,15,52,12.90
2021,09,26,15,53,12.90
2021,09,26,15,54,12.90
2021,09,26,15,55,12.90
2021,09,26,15,56,12.90
2021,09,26,15,57,12.90
2021,09,26,15,58,12.90
2021,09,26,15,59,12.90
2021,09,26,16,00,12.90
2021,09,26,16,01,12.90
2021,09,26,16,02,12.90
2021,09,26,16,03,12.90
2021,09,26,16,04,12.90
2021,09,26,16,05,12.90
2021,09,26,16,06,12.90
2021,09,26,16,07,12.90
2021,09,26,16,08,12.90
2021,09,26,16,09,12.90
2021,09,26,16,10,12.90
2021,09,26,16,11,12.90
2021,09,26,16,12,12.90
2021,09,26,16,13,12.90
2021,09,26,16,14,12.90
2021,09,26,16,15,12.90
2021,09,26,16,16,12.90
2021,09,26,16,17,12.90
2021,09,26,16,18,12.80
2021,09,26,16,19,12.80
2021,09,26,16,20,12.80
2021,09,26,16,21,12.80
2021,09,26,16,22,12.80
2021,09,26,16,23,12.80
2021,09,26,16,24,12.80
2021,09,26,16,25,12.80
2021,09,26,16,26,12.80
2021,09,26,16,27,12.80
2021,09,26,16,28,12.80
2021,09,26,16,29,12.80
2021,09,26,16,30,12.80
2021,09,26,16,31,12.80
2021,09,26,16,32,12.80
2021,09,26,16,33,12.80
2021,09,26,16,34,12.80
2021,09,26,16,35,12.80
2021,09,26,16,36,12.80
2021,09,26,16,37,12.80
2021,09,26,16,38,12.80
2021,09,26,16,39,12.80
2021,09,26,16,40,12.80
2021,09,26,16,41,12.80
2021,09,26,16,42,12.80
2021,09,26,16,43,12.80
2021,09,26,16,44,12.80
2021,09,26,16,45,12.80
2021,09,26,16,46,12.80
2021,09,26,16,47,12.80
2021,09,26,16,48,12.80
2021,09,26,16,49,12.80
2021,09,26,16,50,12.80
2021,09,26,16,51,12.80
2021,09,26,16,52,12.80
2021,09,26,16,53,12.80
2021,09,26,16,54,12.80
2021,09,26,16,55,12.80
2021,09,26,16,56,12.80
2021,09,26,16,57,12.80
2021,09,26,16,58,12.80
2021,09,26,16,59,12.70
2021,09,26,17,00,12.70
2021,09,26,17,01,12.70
2021,09,26,17,02,12.70
2021,09,26,17,03,12.70
2021,09,26,17,04,12.60
2021,09,26,17,05,12.60
2021,09,26,17,06,12.50
2021,09,26,17,07,12.50
2021,09,26,17,08,12.50
2021,09,26,17,09,12.50
2021,09,26,17,10,12.50
2021,09,26,17,11,12.50
2021,09,26,17,12,12.50
2021,09,26,17,13,12.50
2021,09,26,17,14,12.50
2021,09,26,17,15,12.50
2021,09,26,17,16,12.50
